sat.trackr.live / text

‹ back to catalog

STARLINK-3346

NORAD 50821 · 2022-001U

PAYLOAD ACTIVE UNKNOWN

§ Identity

Operator
Country
US
Launch date
2022-01-06
Launch site
AFETR
Launch vehicle
Mass (kg)
RCS (m²)

Purposes: comms

External: N2YO · Heavens-Above · Gunter

§ Orbital elements

Epoch: 2026-09-19T23:53:57.454368Z

Period
94.01 min
Inclination
53.1607°
Eccentricity
0.0001122
Mean motion
15.31703123 rev/d
Perigee alt
470.0 km
Apogee alt
471.5 km
Semi-major
6,848.9 km
B*
2.2816e-5
RAAN
6.1496°
Arg perigee
86.0412°
Mean anomaly
274.0718°
Rev number
25,988

§ Raw data

STARLINK-33461 50821U 22001U   26262.99580387  .00000343  00000+0  22816-4 0  99902 50821  53.1607   6.1496 0001122  86.0412 274.0718 15.31703123259880

JSON: /api/v1/satellites/50821 · /tle

For live sub-satellite position, see the globe view (requires WebGL).

§ Visibility from observer

Set your observer location to see the next 7 days of passes ≥ 10°. The values pass through the URL so the page stays shareable.

No JS? Fill the form by hand. The geolocation button needs JavaScript.